Current weather by "City, St" or "zip code"  
 

Current Conditions: Cordele Crisp County Airport, GA

Fair


49.0 F

Last Updated on Jan 19 2022, 11:55 pm EST
Humidity: 58%
Wind Speed: S 5.8 mph
Barometer 30.14 in
Dewpoint: 35.1 F
Visibility: 10.00 mi
Precip: --
Heat Index: NA
Wind Chill: 47 F
Current conditions at:

Cordele Crisp County Airport, GA (KCKF)

Lat: 31.9888 Lon: 83.7739

Local Radar Image active severe weather and emergency alerts image image weather storm and storm spotter reports image weather observation monitoring service image
Local
Radar
Active
Alerts
Storm Reports Obs
Monitoring

Sign-up For Email & Text Message Weather Alert Notification Services



Advertise Here

Observation History for Cordele Crisp County Airport, GA


Time Wind
(mph)
Vis
(mi)
Weather Precip (in) Temperature (F) Relative
Humidity
Wind
Chill
(F)
Heat
Index
(F)
Pressure
Air Dwpt altimeter
(in)
sea level
(mb)
Rmks
11:55 pm EST S 5.8 10.00 Fair -- 49.0 35.1 58% 47 NA 30.14 M
10:55 pm EST N 0.0 10.00 Fair -- 43.0 34.9 72% NA NA 30.16 M
10:35 pm EST SE 3.5 10.00 Fair -- 44.0 35.6 73% NA NA 30.16 M
9:55 pm EST N 0.0 10.00 Fair -- 46.0 35.6 67% NA NA 30.16 M
9:35 pm EST S 3.5 10.00 Fair -- 49.0 35.8 61% NA NA 30.15 M
8:55 pm EST N 0.0 10.00 Fair -- 55.0 31.8 42% NA NA 30.14 M
8:35 pm EST S 3.5 10.00 Fair -- 54.0 32.2 43% NA NA 30.14 M
7:55 pm EST N 0.0 10.00 Fair -- 55.0 32.2 42% NA NA 30.15 M
7:35 pm EST S 4.6 10.00 Fair -- 56.0 32.0 41% 55 NA 30.15 M
6:55 pm EST SE 4.6 10.00 Fair -- 54.0 32.7 45% 53 NA 30.16 M
5:55 pm EST S 4.6 10.00 Fair -- 60.0 29.7 32% 60 NA 30.17 M
4:55 pm EST S 4.6 10.00 Fair -- 64.0 28.0 26% NA NA 30.17 M
3:55 pm EST S 5.8 10.00 Fair -- 64.0 24.6 22% NA NA 30.17 M
3:35 pm EST S 6.9 10.00 Fair -- 64.0 24.6 22% NA NA 30.19 M
2:55 pm EST W 4.6 10.00 Fair -- 63.0 27.3 26% 64 NA 30.19 M
2:35 pm EST SW 5.8 10.00 Fair -- 62.0 26.8 26% 62 NA 30.21 M
1:55 pm EST SW 6.9 10.00 Fair -- 62.0 26.4 26% 62 NA 30.22 M
1:35 pm EST W 6.9 10.00 Fair -- 61.0 26.6 27% 60 NA 30.23 M
12:55 pm EST W 5.8 10.00 Fair -- 60.0 28.9 30% 60 NA 30.25 M
11:55 am EST S 4.6 10.00 Fair -- 58.0 28.9 33% 58 NA 30.28 M
11:35 am EST S 6.9 10.00 Fair -- 58.0 28.8 33% 57 NA 30.29 M
10:55 am EST N 0.0 10.00 Fair -- 55.0 29.5 37% NA NA 30.31 M
9:55 am EST N 0.0 10.00 Fair -- 46.0 35.8 67% NA NA 30.31 M
8:55 am EST N 0.0 10.00 Fair -- 39.0 33.1 80% NA NA 30.29 M

Regional Weather Observation


Perry-Houston County Airport, GA (KPXE)

Fair
46.0 F

Butler Municipal Airport, GA (K6A1)

Fair
51.0 F

Cordele Crisp County Airport, GA (KCKF)

Fair
49.0 F

Warner Robins Air Force Base, GA (KWRB)

Overcast
45.0 F

Middle Georgia Regional Airport, GA (KMCN)

Fair
46.0 F

Cochran Airport, GA (K48A)

Fair
40.0 F

Advertise Here


Advertise Here